Weather in Petrovka

Russia / Republic of Crimea     45°29′47″N   34°17′00″E
temp.,
°C
wind,
m/s
gust,
m/s
humid.,
%
clouds,
%
prec.,
mm/h
press.,
hPa
HPBL,
m
22 may, sun
sun2200:00+15sw8173498 0.0 1009358
03:00+16sw7163599 0.0 1008418
06:00+15wsw6145092 0.0 1007436
09:00+15wsw578394 0.7 1006354
12:00+19nw356599 0.6 10061087
15:00+19nw5649100 0.6 1005921
18:00+20w58496 0.0 10041494
21:00+15w4967100 0.0 1005228
23 may, mon
mon2300:00+12w47805 0.0 1006115
03:00+11wnw47866 0.0 1006135
06:00+10nw3983100 0.0 1007265
09:00+15nw456395 0.1 10071098
12:00+17wnw565696 0.7 10071562
15:00+16nw6659100 1.1 10071329
18:00+15nw4562100 0.3 10071102
21:00+12n2486100 0.6 1009112
24 may, tue
tue2400:00+12nnw3786100 0.1 1010212
03:00+11ne2288100 0.2 101039
06:00+10n23888 0.0 101170
09:00+16nne35563 0.0 1013980
12:00+19nnw453786 0.0 10132685
15:00+18nw554096 0.0 10141922
18:00+18nnw664319 0.0 10151935
21:00+12nnw33669 0.0 101731
25 may, wed
wed2500:00+11nw227528 0.0 101811
03:00+12sw2368100 0.0 101946
06:00+11sw11734 0.0 102010
09:00+17sse11473 0.0 1021781
12:00+20nne22352 0.0 10212090
15:00+22ene21325 0.0 10202482
18:00+20ese444261 0.0 1020966
21:00+14s3461100 0.0 102148
26 may, thu
thu2600:00+12wsw3675100 0.0 102292
03:00+11wsw337988 0.0 102229
06:00+12ssw237317 0.0 102149
09:00+18s334797 0.0 1021645
12:00+22wsw3438100 0.0 10191519
15:00+20w664088 0.0 1019937
18:00+17wsw6104855 0.0 1019563
21:00+14wsw5116546 0.0 1019322